(344962) = 2004 XR11 = 2008 WC112

Discovered at Socorro on 2004-12-07 by LINEAR.

Orbit

Orbit type: Main Belt

Note: WebGL enabled browser required.

epoch2022-01-21.0
epoch JD2459600.5
perihelion date2020-07-15.54855
perihelion JD2459046.04855
argument of perihelion (°)87.71806
ascending node (°)300.67366
inclination (°)1.35589
eccentricity0.1029486
perihelion distance (AU)2.2631962
Tisserand w.r.t. Jupiter3.4
ΔV w.r.t. Earth (km/sec)9.4
semimajor axis (AU)2.5229282
mean anomaly (°)136.36724
mean daily motion (°/day)0.24594980
aphelion distance (AU)2.783
period (years)4.01
P-vector [x]0.87947666
P-vector [y]0.42672412
P-vector [z]0.21077789
Q-vector [x]-0.47550667
Q-vector [y]0.80674485
Q-vector [z]0.35079361
absolute magnitude16.88
phase slope0.15
uncertainty0
referenceMPO 697998
observations used293
oppositions13
arc length (days)7820
first opposition used2000
last opposition used2022
residual rms (arc-secs)0.74
perturbers coarse indicatorM-v
perturbers precise indicator003Ek
first observation date used2000-11-29.0
last observation date used2022-04-28.0
computer namePan
JD of orbit computation2456789.336235
perihelion JD uncertainty (days)7.5628E-04
argument of perihelion uncertainty (°)2.7880E-04
ascending node uncertainty (°)2.3575E-04
inclination uncertainty (°)3.7873E-06
eccentricity uncertainty 1.3432E-06
perihelion distance uncertainty (AU)3.3972E-06
Minimum Orbit Intersection Distances (in AU)
for orbit epoch: 2458200.5, reference: MPO413346
Mercury1.9243
Venus1.53866
Earth1.26419
Mars0.795376
Jupiter2.62645
Saturn6.61154
Uranus15.45
Neptune27.4706

Observations

295 total observations over interval: 2000 11 29.31026 – 2022 04 28.322438
These data are available for download (format description).

Date (UT) J2000 RA J2000 Dec Magn Location Ref
2000 11 29.31026 05 04 48.38 +24 34 28.9 20.0   704 – Lincoln Laboratory ETS, New Mexico MPS 317896
2000 11 29.32576 05 04 47.31 +24 34 26.7 20.3   704 – Lincoln Laboratory ETS, New Mexico MPS 317896
2000 11 29.34228 05 04 46.17 +24 34 25.6 20.4   704 – Lincoln Laboratory ETS, New Mexico MPS 317896
2002 04 13.19937 12 16 21.60 -03 54 29.4 21.2 V 291 – LPL/Spacewatch II MPS 269254
2002 04 13.21962 12 16 20.62 -03 54 22.8 21.5 V 291 – LPL/Spacewatch II MPS 269254
2002 04 13.23983 12 16 19.65 -03 54 16.3 21.3 V 291 – LPL/Spacewatch II MPS 269254
2004 12 02.35726 04 57 17.79 +24 23 57.0 18.8 R 703 – Catalina Sky Survey MPS 121804
2004 12 02.36546 04 57 17.06 +24 23 55.4 18.3 R 703 – Catalina Sky Survey MPS 121804
2004 12 02.37368 04 57 16.84 +24 23 55.1 17.8 R 703 – Catalina Sky Survey MPS 121804
2004 12 02.38191 04 57 16.08 +24 23 53.9 18.5 R 703 – Catalina Sky Survey MPS 121804
2004 12 07.25071 04 52 03.18 +24 13 30.5 19.8   704 – Lincoln Laboratory ETS, New Mexico MPS 121804
2004 12 07.26521 04 52 02.24 +24 13 27.0 20.6   704 – Lincoln Laboratory ETS, New Mexico MPS 121804
2004 12 07.27822 04 52 01.34 +24 13 27.6 19.9   704 – Lincoln Laboratory ETS, New Mexico MPS 121804
2004 12 07.29077 04 52 00.53 +24 13 26.1 20.3   704 – Lincoln Laboratory ETS, New Mexico MPS 121804
2004 12 07.30442 04 51 59.59 +24 13 23.3 19.7   704 – Lincoln Laboratory ETS, New Mexico MPS 121804
2004 12 08.30323 04 50 55.59 +24 11 07.2 19.4   704 – Lincoln Laboratory ETS, New Mexico MPS 121804
2004 12 08.31740 04 50 54.63 +24 11 03.9 19.7   704 – Lincoln Laboratory ETS, New Mexico MPS 121804
2004 12 08.34118 04 50 53.07 +24 11 01.7 20.2   704 – Lincoln Laboratory ETS, New Mexico MPS 121804
2004 12 08.35816 04 50 51.96 +24 10 58.8 19.8   704 – Lincoln Laboratory ETS, New Mexico MPS 121804
2004 12 08.37223 04 50 50.96 +24 10 56.8 20.2   704 – Lincoln Laboratory ETS, New Mexico MPS 121804
2004 12 10.13623 04 48 59.22 +24 06 48.8 19.6 V 691 – Steward Observatory, Kitt Peak-Spacewatch MPS 121804
2004 12 10.16204 04 48 57.55 +24 06 45.5 19.7 V 691 – Steward Observatory, Kitt Peak-Spacewatch MPS 121804
2004 12 10.18797 04 48 55.86 +24 06 41.9 19.8 V 691 – Steward Observatory, Kitt Peak-Spacewatch MPS 121804
2004 12 16.13283 04 42 51.54 +23 52 08.0 19.9 V 691 – Steward Observatory, Kitt Peak-Spacewatch MPS 121804
2004 12 16.16002 04 42 49.88 +23 52 04.4 19.8 V 691 – Steward Observatory, Kitt Peak-Spacewatch MPS 121804
2004 12 16.18767 04 42 48.20 +23 52 00.4 19.9 V 691 – Steward Observatory, Kitt Peak-Spacewatch MPS 121804
2006 03 02.42215 12 47 24.99 -06 59 40.2 21.1 V 691 – Steward Observatory, Kitt Peak-Spacewatch MPS 269254
2006 03 02.43948 12 47 24.34 -06 59 37.1 21.2 V 691 – Steward Observatory, Kitt Peak-Spacewatch MPS 269254
2006 03 02.45679 12 47 23.70 -06 59 34.4 21.8 V 691 – Steward Observatory, Kitt Peak-Spacewatch MPS 269254
2006 04 02.29441 12 22 40.54 -04 34 53.5 20.3 V G96 – Mt. Lemmon Survey MPS 269254
2006 04 02.30037 12 22 40.22 -04 34 51.6 20.6 V G96 – Mt. Lemmon Survey MPS 269254
2006 04 02.30610 12 22 39.93 -04 34 49.8 20.5 V G96 – Mt. Lemmon Survey MPS 269254
2006 04 02.31168 12 22 39.61 -04 34 48.0 20.3 V G96 – Mt. Lemmon Survey MPS 269254
2006 04 20.15189 12 08 41.78 -03 02 52.3 21.0 V 691 – Steward Observatory, Kitt Peak-Spacewatch MPS 269254
2006 04 20.17509 12 08 40.82 -03 02 46.1 21.1 V 691 – Steward Observatory, Kitt Peak-Spacewatch MPS 269254
2006 04 20.19816 12 08 39.89 -03 02 40.1 21.1 V 691 – Steward Observatory, Kitt Peak-Spacewatch MPS 269254
2008 10 03.44353 05 10 59.16 +24 36 45.2 20.3 V G96 – Mt. Lemmon Survey MPS 269254
2008 10 03.44934 05 10 59.34 +24 36 45.6 20.4 V G96 – Mt. Lemmon Survey MPS 269254
2008 10 03.45522 05 10 59.55 +24 36 46.6 20.1 V G96 – Mt. Lemmon Survey MPS 269254
2008 10 03.46115 05 10 59.73 +24 36 46.5 20.3 V G96 – Mt. Lemmon Survey MPS 269254
2008 11 21.31625 05 00 35.78 +24 33 55.0 19.8 V 691 – Steward Observatory, Kitt Peak-Spacewatch MPS 269254
2008 11 21.33393 05 00 34.73 +24 33 53.2 19.8 V 691 – Steward Observatory, Kitt Peak-Spacewatch MPS 269254
2008 11 21.35161 05 00 33.68 +24 33 51.8 19.8 V 691 – Steward Observatory, Kitt Peak-Spacewatch MPS 269254
2008 11 30.23489 04 51 32.23 +24 17 42.1 19.7 V 691 – Steward Observatory, Kitt Peak-Spacewatch MPS 269355
2008 11 30.25252 04 51 31.05 +24 17 40.3 20.7 V 691 – Steward Observatory, Kitt Peak-Spacewatch MPS 269355
2008 11 30.27015 04 51 29.88 +24 17 37.9 19.7 V 691 – Steward Observatory, Kitt Peak-Spacewatch MPS 269355
2008 11 30.38934 04 51 22.03 +24 17 22.4 18.8 V G96 – Mt. Lemmon Survey MPS 269254
2008 11 30.39495 04 51 21.67 +24 17 21.6 18.9 V G96 – Mt. Lemmon Survey MPS 269254
2008 11 30.40061 04 51 21.31 +24 17 20.9 18.9 V G96 – Mt. Lemmon Survey MPS 269254
2008 11 30.40626 04 51 20.91 +24 17 20.1 19.0 V G96 – Mt. Lemmon Survey MPS 269254
2008 12 04.20119 04 47 18.22 +24 08 53.7 19.6 V 691 – Steward Observatory, Kitt Peak-Spacewatch MPS 269355
2008 12 04.21887 04 47 17.04 +24 08 51.3 19.5 V 691 – Steward Observatory, Kitt Peak-Spacewatch MPS 269355
2008 12 04.24029 04 47 15.62 +24 08 48.3 19.5 V 691 – Steward Observatory, Kitt Peak-Spacewatch MPS 269355
2008 12 21.80694 04 30 00.03 +23 23 46.9 20.4 V 104 – San Marcello Pistoiese MPS 269355
2008 12 21.83142 04 29 58.84 +23 23 43.6 20.3 V 104 – San Marcello Pistoiese MPS 269355
2008 12 21.85148 04 29 57.84 +23 23 39.9 19.8 V 104 – San Marcello Pistoiese MPS 269355
2008 12 22.13334 04 29 44.02 +23 22 57.2 19.9 V 691 – Steward Observatory, Kitt Peak-Spacewatch MPS 269254
2008 12 22.14969 04 29 43.19 +23 22 54.8 19.8 V 691 – Steward Observatory, Kitt Peak-Spacewatch MPS 269254
2008 12 22.16605 04 29 42.35 +23 22 52.5 19.8 V 691 – Steward Observatory, Kitt Peak-Spacewatch MPS 269254
2008 12 22.76090 04 29 13.55 +23 21 19.0 19.6 V 104 – San Marcello Pistoiese MPS 269355
2008 12 22.78037 04 29 12.64 +23 21 15.9 19.9 V 104 – San Marcello Pistoiese MPS 269355
2008 12 22.80845 04 29 11.19 +23 21 11.9 20.1 V 104 – San Marcello Pistoiese MPS 269355
2008 12 23.77546 04 28 25.44 +23 18 43.7 20.0 V 104 – San Marcello Pistoiese MPS 269254
2008 12 23.79606 04 28 24.44 +23 18 41.3 19.8 V 104 – San Marcello Pistoiese MPS 269254
2008 12 23.80770 04 28 23.83 +23 18 39.6 20.3 V 104 – San Marcello Pistoiese MPS 269254
2008 12 30.20138 04 24 00.92 +23 03 21.3 20.0 C 704 – Lincoln Laboratory ETS, New Mexico MPS 287967
2008 12 30.21420 04 24 00.41 +23 03 20.1 20.4 C 704 – Lincoln Laboratory ETS, New Mexico MPS 287967
2008 12 30.22720 04 23 59.95 +23 03 17.6 20.2 C 704 – Lincoln Laboratory ETS, New Mexico MPS 287967
2008 12 31.26673 04 23 24.21 +23 01 00.9   291 – LPL/Spacewatch II MPS 270131
2008 12 31.27073 04 23 24.08 +23 01 00.5   291 – LPL/Spacewatch II MPS 270131
2008 12 31.27481 04 23 23.92 +23 00 59.8   291 – LPL/Spacewatch II MPS 270131
2009 02 16.84395 04 33 06.60 +22 41 24.7 20.8 C 493 – Calar Alto MPS 276494
2009 02 16.84690 04 33 06.77 +22 41 24.8 21.6 C 493 – Calar Alto MPS 276494
2009 02 16.84983 04 33 06.90 +22 41 25.2 21.3 C 493 – Calar Alto MPS 276494
2010 03 12.27291 12 37 48.69 -06 04 56.7 20.7 V 691 – Steward Observatory, Kitt Peak-Spacewatch MPS 316715
2010 03 12.29052 12 37 47.83 -06 04 52.2 20.7 V 691 – Steward Observatory, Kitt Peak-Spacewatch MPS 316715
2010 03 12.30812 12 37 47.00 -06 04 47.5 20.6 V 691 – Steward Observatory, Kitt Peak-Spacewatch MPS 316715
2010 03 16.24190 12 34 37.45 -05 46 36.0 20.6 V 691 – Steward Observatory, Kitt Peak-Spacewatch MPS 317896
2010 03 16.25954 12 34 36.52 -05 46 30.8 21.1 V 691 – Steward Observatory, Kitt Peak-Spacewatch MPS 317896
2010 03 16.27718 12 34 35.59 -05 46 25.5 20.8 V 691 – Steward Observatory, Kitt Peak-Spacewatch MPS 317896
2010 03 20.24755 12 31 13.76 -05 26 35.5 20.7 V 691 – Steward Observatory, Kitt Peak-Spacewatch MPS 319306
2010 03 20.26523 12 31 12.83 -05 26 30.1 20.9 V 691 – Steward Observatory, Kitt Peak-Spacewatch MPS 319306
2010 03 20.28291 12 31 11.87 -05 26 24.4 20.4 V 691 – Steward Observatory, Kitt Peak-Spacewatch MPS 319306
2012 10 28.407179 05 11 21.264 +24 47 24.95 19.9 z F51 – Pan-STARRS 1, Haleakala MPS 439469
2012 10 28.418466 05 11 21.062 +24 47 24.93 19.9 z F51 – Pan-STARRS 1, Haleakala MPS 439469
